Jackpot

Texas Poker Multi Jackpot System

Kini Telah hadir Jackpot SUPER ROYAL FLUSH

Kini Telah hadir Jackpot 2000 (khusus table VIP keatas).

Ikutilah global jackpot yang tersedia di system kami, dengan system jackpot terbaru dan pertama di indonesia, anda dapat membeli jackpot dengan harga 100 rupiah saja dan menangkan hadiahnya hingga puluhan juta rupiah.

Jackpot bukanlah suatu keharusan untuk dibeli, namun kami memberikan suatu fitur tambahan untuk member tercinta dari www.remi88.com.

Terdapat tiga pilihan harga jackpot yang bisa anda beli yaitu :100,500,1000 dan 2000(khusus table VIP Keatas) rupiah.

Hadiah dari Multi jackpot system www.remi88.com

  1. full house x 10 harga jackpot yang anda beli.
      (contoh:anda membeli 1000 maka:1000 X10 = 10.000)
  2. four of kind x 250 harga jackpot yang anda beli
      (contoh:anda membeli 1000 maka:1000 X250 = 250.000)
  3. Straight flush x 1200
      (contoh:anda membeli 1000 maka:1000 X1200 = 1.200.000)
  4. Royal flush x 10000 harga jackpot yang anda beli
      (contoh:anda membeli 1000 maka:1000 X10000 = 10.000.000)
  5. SUPER ROYAL FLUSH x 30000 harga jackpot yang anda beli
      (contoh:anda membeli 1000 maka:1000 X30000 = 30.000.000)

Kondisi kartu

  1. full house adalah kondisi kartu dimana kartu anda dan kartu tengah dengan total 7 kartu bisa mendapatkan nilai 5 kartu dengan kombinasi 1 tris(three of kind) dan 1 pair, contoh 3 kartu 10 dan 2 kartu 5
  2. Four of kind adalah kondisi kartu dimana kartu anda dan kartu tengah dengan total 7 kartu bisa mendapatkan nilai 5 kartu dengan kombinasi 4 kartu yang sama jumlah dan 1 kartu apapun juga contoh anda mendapatkan 4 buah kartu angka 3 dan 1 kartu apapun.
  3. Staright flush adalah kondisi kartu dimana kartu anda dan kartu tengah dengan total 7 kartu bisa mendapatkan nilai 5 kartu dengan kombinasi seri / staright dengan kembang yang sama contoh : urutan kartu dari angka 5, 6, 7, 8 , 9 10 dengan kembang yg sama misalnya as hati
  4. Royal flush adalah kondisi kartu dimana kartu anda dan kartu tengah dengan total 7 kartu bisa mendapatkan nilai 5 kartu dengan kombinasi seri / staright dengan kembang yang sama tetapi kartu tersebut haruslah dimulai dari 10. contoh 10, Queen, Jack, King dan aces dengan kembang yang sama
  5. Super Royal flush adalah kondisi kartu dimana Kedua kartu anda digabung dengan 3 kartu pertama meja haruslah royal flush. contoh kartu anda 10,Queen kembang sama dan 3 kartu pertama meja adalah Jack, King dan aces dengan kembang yang sama

Demikian adalah penjelasan dari Multi Jackpot www.remi88.com terima kasih dan selamat bermain salam hoki dari kami

Texas Poker Jackpot Winner

TOP SUPER ROYAL FLUSH
No.TanggalNamaPriceWin
125/09 05:30B365CA9ASuper Royal flush6,000,000
225/09 00:17N0AH16Super Royal flush3,000,000
324/09 23:12SAF99Super Royal flush1,500,000
424/09 16:34OPPOF9Super Royal flush30,000,000
524/09 14:33ALL19Super Royal flush6,000,000
TOP ROYAL FLUSH
No.TanggalNamaPriceWin
125/09 06:41YANIIIII11Royal flush5,000,000
225/09 06:41SONIC4444Royal flush5,000,000
325/09 06:41AGARSUKSESRoyal flush5,000,000
425/09 04:58RODABERPUTRoyal flush2,000,000
525/09 04:19ALVINO102Royal flush5,000,000
TOP STRAIGHT FLUSH
No.TanggalNamaPriceWin
125/09 06:49XKPQKRGB56Straight Flush600,000
225/09 06:42JEIIN17Straight Flush600,000
325/09 06:40VTS6P2Y1TTStraight Flush1,200,000
425/09 06:34UL432CHStraight Flush2,400,000
525/09 06:34CILOKSDStraight Flush600,000
LATEST JACKPOT
No.TanggalNamaPriceWin
125/09 06:50GJK91Full House5,000
225/09 06:50UNTUKHIDUP2Full House10,000
325/09 06:50RIZKY0101Full House1,000
425/09 06:50ANDREAS_12Full House2,000
525/09 06:50SOLOGAMEFull House500
625/09 06:50KODOKLUFull House20,000
725/09 06:50HARVITTFull House5,000
825/09 06:50HENTEHAYNGFour Of A Kind125,000
925/09 06:50CU64D4KFull House5,000
1025/09 06:50N4GAPOKER8Full House10,000
1125/09 06:50IQROM12Full House10,000
1225/09 06:50BLTOMPOFull House10,000
1325/09 06:50MAIL40Full House2,000
1425/09 06:50G4DCHUVTFull House2,000
1525/09 06:50D4F03696Full House2,000
1625/09 06:50RENTAL86Full House1,000
1725/09 06:49EZAINCFBLSFull House10,000
1825/09 06:49ARJUN4212Full House5,000
1925/09 06:49NGABENFull House10,000
2025/09 06:49G1AVDGSA99Full House20,000
2125/09 06:49DANNY30Full House1,000
2225/09 06:49PANZIX_08Full House2,000
2325/09 06:49BCANBOSFull House2,000
2425/09 06:49KAQE4EL695Full House5,000
2525/09 06:49JKT3Full House5,000
2625/09 06:49A6C51FA8Full House2,000
2725/09 06:49BDCEME19Full House1,000
2825/09 06:49OCIIFull House5,000
2925/09 06:49GIEBFBCA1Full House2,000
3025/09 06:49XKPQKRGB56Straight Flush600,000
3125/09 06:49LUDIA88Full House5,000
3225/09 06:49PANZIX_08Full House2,000
3325/09 06:49JARIAH90Four Of A Kind125,000
3425/09 06:49VANMSFull House5,000
3525/09 06:49K4D4P3Full House1,000
3625/09 06:49LOVEMONEYFull House1,000
3725/09 06:49BOZONG20Full House10,000
3825/09 06:49INDI111Full House1,000
3925/09 06:49JP10JQKAFull House2,000
4025/09 06:48PLGJOKER88Full House10,000
4125/09 06:48GORD_888Full House1,000
4225/09 06:48B61REY555316Full House10,000
4325/09 06:48S4RUANGFull House5,000
4425/09 06:48P8DAVMGWYZFull House5,000
4525/09 06:48AFRIZALL28Full House20,000
4625/09 06:48BANE34Full House2,000
4725/09 06:48NOVITA0912Full House500
4825/09 06:48DIBAWAFull House1,000
4925/09 06:48SAKITGIGI7Four Of A Kind12,500
5025/09 06:48IONAXXYXR1Full House2,000

Domino Multi Jackpot System

Ikutilah global jackpot yang tersedia di system kami, dengan system jackpot terbaru dan pertama di indonesia, anda dapat membeli jackpot dengan harga 100 rupiah saja dan menangkan hadiahnya hingga puluhan juta rupiah.

Jackpot bukanlah suatu keharusan untuk dibeli, namun kami memberikan suatu fitur tambahan untuk member tercinta dari www.remi88.com.

Terdapat tiga pilihan harga jackpot yang bisa anda beli yaitu :100,500 dan 1000 rupiah.

Hadiah dari Multi jackpot system www.remi88.com

  1. Murni Kecil x 50 harga jackpot yang anda beli.
      (contoh:anda membeli 1000 maka:1000 X 50 = 50.000)
  2. Murni Besar x 50 harga jackpot yang anda beli
      (contoh:anda membeli 1000 maka:1000 X 50 = 50.000)
  3. BALAK x 100 harga jackpot yang anda beli
      (contoh:anda membeli 1000 maka:1000 X 100 = 100.000)
  4. ENAM DEWA x 6666 harga jackpot yang anda beli
      (contoh:anda membeli 1000 maka:1000 X 6666 = 6.666.000)

Demikian adalah penjelasan dari Multi Jackpot www.remi88.com terima kasih dan selamat bermain salam hoki dari kami

Domino Jackpot Winner

TOP ENAM DEWA
No.TanggalNamaPriceWin
125/09 06:42ATIKmurni enam666,600
225/09 03:00TEMPUYAK90murni enam3,333,000
325/09 02:56MULLAHmurni enam3,333,000
424/09 23:14SUTRIS80murni enam666,600
524/09 22:52LAELADEWImurni enam3,333,000
TOP BALAK
No.TanggalNamaPriceWin
125/09 06:39ROSSA12balak100,000
225/09 06:34GALANKbalak100,000
325/09 06:17HENDRY8486balak50,000
425/09 06:16MASRIK14balak100,000
525/09 06:09IBP89701balak100,000
LATEST JACKPOT
No.TanggalNamaPriceWin
125/09 06:49NI3murni kecil50,000
225/09 06:49IMPOR202murni besar25,000
325/09 06:48SAHURI99murni besar25,000
425/09 06:48BANGYOS03murni kecil25,000
525/09 06:48QITALmurni kecil50,000
625/09 06:46SAHURI99murni besar25,000
725/09 06:44ZZZ4321murni kecil5,000
825/09 06:44K4MUS27murni kecil50,000
925/09 06:42ATIKmurni enam666,600
1025/09 06:42SKABRIOTSmurni kecil50,000
1125/09 06:40IMPOR202murni besar25,000
1225/09 06:39ROSSA12balak100,000
1325/09 06:35MASRIK14murni kecil25,000
1425/09 06:34GALANKbalak100,000
1525/09 06:33M4KMURRmurni besar25,000
1625/09 06:33JAAHAATTmurni besar5,000
1725/09 06:33GULALI5lucky992,500
1825/09 06:31LANLAN31murni kecil5,000
1925/09 06:30PCK4DEWAJUDImurni besar25,000
2025/09 06:29BIANTARAmurni besar25,000
2125/09 06:28CIPUY78murni besar50,000
2225/09 06:27DWIYONOmurni kecil5,000
2325/09 06:26SANTOS10murni kecil25,000
2425/09 06:26SUT012murni kecil50,000
2525/09 06:25QILONK13murni kecil5,000
2625/09 06:24ARSEL31murni besar25,000
2725/09 06:23BOCAHH88lucky992,500
2825/09 06:22ADOENSElucky992,500
2925/09 06:20JAHAlucky992,500
3025/09 06:19BSWY9EFOPTmurni kecil25,000
3125/09 06:19RUDI0409murni besar50,000
3225/09 06:17HENDRY8486balak50,000
3325/09 06:16MASRIK14balak100,000
3425/09 06:16XDIKAmurni besar50,000
3525/09 06:14Y42DImurni kecil50,000
3625/09 06:14THEKING10murni kecil50,000
3725/09 06:13BOMBAY285murni besar50,000
3825/09 06:12INDRIPUTRImurni besar25,000
3925/09 06:11GALANKlucky9950,000
4025/09 06:11KHAY94murni besar25,000
4125/09 06:11RUDI0409murni besar50,000
4225/09 06:10IDK896243murni kecil25,000
4325/09 06:09BENTENG6murni besar50,000
4425/09 06:09O0JZKLJ9M1murni besar50,000
4525/09 06:09SOUL9murni besar50,000
4625/09 06:09IBP89701balak100,000
4725/09 06:07SYAM168murni besar5,000
4825/09 06:06WCUMUM27murni besar5,000
4925/09 06:06DENDICS9murni besar50,000
5025/09 06:05MUFAALFAbalak50,000

Ceme Multi Jackpot System

Jackpot dilihat dari gabungan kartu pemain dengan kartu bandar. Bandar harus membeli jackpot sebanyak jumlah player yang sedang duduk. Sebagai contoh bila terdapat 3 pemain duduk bermain, dan bandar memutuskan untuk membeli jackpot Rp 1.000, maka pada periode tersebut bandar akan membeli jackpot sebanyak 3xRp1.000 = Rp3.000.

Jackpot bukanlah suatu keharusan untuk dibeli, namun kami memberikan suatu fitur tambahan untuk member tercinta dari www.remi88.com.

Terdapat tiga pilihan harga jackpot yang bisa anda beli yaitu :100,500 dan 1000 rupiah.

Hadiah dari Multi jackpot system www.remi88.com

  1. Murni Kecil x 50 harga jackpot yang anda beli.
      (contoh:anda membeli 1000 maka:1000 X 50 = 50.000)
  2. Murni Besar x 50 harga jackpot yang anda beli
      (contoh:anda membeli 1000 maka:1000 X 50 = 50.000)
  3. BALAK x 200 harga jackpot yang anda beli
      (contoh:anda membeli 1000 maka:1000 X 200 = 200.000)
  4. ENAM DEWA x 6666 harga jackpot yang anda beli
      (contoh:anda membeli 1000 maka:1000 X 6666 = 6.666.000)

Demikian adalah penjelasan dari Multi Jackpot www.remi88.com terima kasih dan selamat bermain salam hoki dari kami

Ceme Jackpot Winner

TOP ENAM DEWA
No.TanggalNamaPriceWin
125/09 06:47YOIBROW89murni enam6,666,000
225/09 06:44MWMW14murni enam3,333,000
325/09 06:21K0K0451Kmurni enam6,666,000
425/09 06:21WIDAY206murni enam3,333,000
525/09 06:03KUSUMZISQQmurni enam666,600
TOP BALAK
No.TanggalNamaPriceWin
125/09 06:49TAFFAAbalak20,000
225/09 06:48ONANbalak100,000
325/09 06:48CANTONA1balak200,000
425/09 06:47AABRIKbalak200,000
525/09 06:47AZZULOVAbalak200,000
LATEST JACKPOT
No.TanggalNamaPriceWin
125/09 06:50BUCAN88murni kecil50,000
225/09 06:50WIDAY206murni besar25,000
325/09 06:49PENTET87murni besar50,000
425/09 06:49PENTET87murni besar50,000
525/09 06:49SIANIIDA88murni besar25,000
625/09 06:49TAFFAAbalak20,000
725/09 06:49KMS123456murni kecil50,000
825/09 06:49GAHAR28murni kecil50,000
925/09 06:49HAYATI889murni kecil50,000
1025/09 06:48DWBTLEK16murni kecil50,000
1125/09 06:48GBKRRTBN6Umurni kecil5,000
1225/09 06:48ONANmurni kecil25,000
1325/09 06:48ONANbalak100,000
1425/09 06:48CANTONA1balak200,000
1525/09 06:48YEFRISONKmurni kecil5,000
1625/09 06:48ACHA13murni kecil50,000
1725/09 06:47AABRIKbalak200,000
1825/09 06:47AZZULOVAbalak200,000
1925/09 06:47IDUTEAbalak200,000
2025/09 06:47YOIBROW89murni enam6,666,000
2125/09 06:47TRIYA92murni kecil25,000
2225/09 06:47AMOT06murni kecil5,000
2325/09 06:46JOZZZ9999murni besar25,000
2425/09 06:46RYKSHELIAmurni besar50,000
2525/09 06:46WAHAB77murni besar50,000
2625/09 06:46ICONK94murni besar5,000
2725/09 06:46GAHAR28murni besar25,000
2825/09 06:46BEN234murni besar25,000
2925/09 06:46BENDRObalak20,000
3025/09 06:46MICKEY1236balak100,000
3125/09 06:46VEGARR1993murni kecil50,000
3225/09 06:46NURLE88murni kecil50,000
3325/09 06:46KARMILA201murni kecil50,000
3425/09 06:46LUKE704murni kecil50,000
3525/09 06:46STABILL9murni besar50,000
3625/09 06:45CHEVA98murni besar50,000
3725/09 06:44PESTmurni kecil50,000
3825/09 06:44JHAY1212murni besar25,000
3925/09 06:44TORE16balak200,000
4025/09 06:44PAKBEEKBRObalak200,000
4125/09 06:44LUKE704murni kecil50,000
4225/09 06:44DHEWA888balak200,000
4325/09 06:44BDGBOISCLUBbalak20,000
4425/09 06:44P3MAUmurni kecil5,000
4525/09 06:44MWMW14murni enam3,333,000
4625/09 06:44GANDUT73murni kecil50,000
4725/09 06:43ZODAAKBARmurni kecil50,000
4825/09 06:43E91_VIPmurni kecil50,000
4925/09 06:43IMAM8murni kecil5,000
5025/09 06:43BOEX9KETEXmurni besar50,000